Regional Weather Roundup
Issued by NWS

Home | Current Version | Previous Version | Text Only | Print | Product List | Glossary Off
Versions: 1 2 3 4 5 6 7 8 9 10 11 12 13 14 15 16 17 18 19 20 21 22 23 24 25 26 27 28

000
ASUS45 KSLC 211210
RWRUT

UTAH REGIONAL WEATHER ROUNDUP
NATIONAL WEATHER SERVICE SALT LAKE CITY UT
600 AM MDT SAT APR 21 2018

UTZ001>011-023>025-211300-

NORTHERN UTAH

CITY           SKY/WX    TMP DP  RH WIND       PRES   REMARKS
BRIGHAM CITY   CLEAR     38  30  74 S3        30.16R
HILL AFB       CLEAR     43  32  66 S8        30.16R
LOGAN          CLEAR     39  29  67 NE3       30.16S
OGDEN          CLEAR     43  33  68 S5        30.15R
SALT LAKE CITY CLEAR     46  37  71 SE7       30.16R
TOOELE VALLEY  CLEAR     36  32  87 S7        30.17S WCI  30
WENDOVER       PTCLDY    54  18  24 S8        30.16R
HEBER CITY       N/A     32  27  80 CALM      30.18R
WEST JORDAN    CLEAR     41  33  73 SW5       30.18R

$$

UTZ011>015-024>027-211300-

CENTRAL/NORTHEAST UTAH

CITY           SKY/WX    TMP DP  RH WIND       PRES   REMARKS
PROVO AIRPORT  CLEAR     38  34  85 CALM      30.19R
MOAB/CANYONLAN CLOUDY    45  44  97 CALM      30.11R
DELTA          CLEAR     39  34  81 CALM      30.20R
PRICE          CLEAR     33  33 100 S7        30.14R WCI  27
RICHFIELD      CLEAR     30  30 100 W2        30.22R
ROOSEVELT      MOCLDY    37  36  93 SW6       30.19R WCI  33
VERNAL         CLEAR     36  33  89 W3        30.15R

$$

UTZ013>016-019>022-027-211300-

SOUTHERN UTAH

CITY           SKY/WX    TMP DP  RH WIND       PRES   REMARKS
BRYCE CANYON   CLEAR     28  24  85 SW3       30.24R
CEDAR CITY     CLEAR     31  30  96 CALM      30.20R
MILFORD        CLEAR     35  35 100 S7        30.20R WCI  29
ST GEORGE      SUNNY     46  33  60 SE5       30.16R
HANKSVILLE     CLEAR     39  32  75 CALM      30.15R
KANAB          CLEAR     34  28  80 N2        30.23R
BLANDING         N/A     37  30  75 W3        30.17S

$$

REGIONAL REPORTS     COLORADO/ARIZONA

CITY           SKY/WX    TMP DP  RH WIND       PRES   REMARKS
CRAIG, CO      MOCLDY    36  31  82 CALM      30.13R
GRAND JUNCTION CLOUDY    41  40  96 N7        30.12R
RIFLE, CO      CLOUDY    36  36 100 S3        30.13R
MONTROSE, CO   CLOUDY    37  35  92 S6        30.13S WCI  32
CORTEZ, CO     CLOUDY    44  35  70 NW10      30.10R
COLORADO CITY    N/A     32  30  93 SE5       30.21R WCI  27
PAGE, AZ       CLEAR     41  37  86 CALM      30.13S
GRAND CANYON   PTCLDY    24  22  91 E3        30.21S
KINGMAN, AZ    CLEAR     46  21  37 CALM      30.12S
FLAGSTAFF, AZ  CLEAR     23  21  92 CALM      30.20R

$$

REGIONAL REPORTS    NEVADA/IDAHO/WYOMING

CITY           SKY/WX    TMP DP  RH WIND       PRES   REMARKS
LAS VEGAS, NV  CLEAR     58  31  35 SW6       30.09R
ELY, NY        PTCLDY    25  15  66 S13       30.25S WCI  14
ELKO, NV       PTCLDY    32  23  69 NE6       30.23F WCI  26
POCATELLO, ID  CLEAR     43  22  43 SW7       30.17S
BURLEY, ID     CLEAR     41  23  48 SW13      30.14R
FORT BRIDGER,    N/A     33  30  88 W12       30.20F WCI  25
EVANSTON, WY   CLEAR     37  25  61 CALM      30.20R
ROCK SPRINGS,  PTCLDY    34  30  85 SE5       30.18S WCI  30
KEMMERER, WY   CLEAR     30  28  93 NW8       30.19R WCI  23

$$




USA.gov is the U.S. government's official web portal to all federal, state and local government web resources and services.